Cleveland, MS

3:31 AM CST on February 28, 2017 (GMT -0600)
Cleveland Municipal

Weather History for KRNV - February, 2014

Change the Weather History Date:

Wednesday, February 5, 2014

  Actual Average (KGLH) Record (KGLH)
Temperature  
Mean Temperature 33 °F -  
Max Temperature 37 °F 51 °F 79 °F (2008)
Min Temperature 29 °F 33 °F 10 °F (1996)
Degree Days  
Heating Degree Days 32    
Moisture  
Dew Point 29 °F    
Average Humidity 86    
Maximum Humidity 99    
Minimum Humidity 75    
Precipitation  
Precipitation 0.02 in - - ()
Sea Level Pressure  
Sea Level Pressure 30.30 in    
Wind  
Wind Speed 11 mph (NNW)    
Max Wind Speed 22 mph    
Max Gust Speed 29 mph    
Visibility 10 miles    
Events      
Averages and records for this station are not official NWS values.
T = Trace of Precipitation, MM = Missing Value Source: NWS Daily Summary

Daily Weather History Graph

Daily Weather History Graph

Search for Another Location

Airport or City:

Trip Planner

Search our weather history database for the weather conditions in past years. The results will help you decide how hot, cold, wet, or windy it might be!

Date:

Astronomy

Feb. 05, 2014 Rise Set
Actual Time 6:56 AM CST 5:37 PM CST
Civil Twilight 6:30 AM CST 6:03 PM CST
Nautical Twilight 6:00 AM CST 6:33 PM CST
Astronomical Twilight 5:31 AM CST 7:02 PM CST
Moon 10:31 AM CST (2/5) No Moon Set
Length of Visible Light 11h 33m
Length of Day
10h 41m
Waxing Crescent, 39% of the Moon is Illuminated
Feb 5
Waxing Crescent
Feb 6
First Quarter
Feb 14
Full
Feb 22
Last Quarter
Mar 1
New

Hourly Weather History & Observations

Time (CST) Temp. Windchill Dew Point Humidity Pressure Visibility Wind Dir Wind Speed Gust Speed Precip Events Conditions
12:15 AM 33.8 °F 25.8 °F 33.3 °F 98% 30.03 in 10.0 mi WNW 10.4 mph 16.1 mph N/A   Overcast
12:35 AM 33.8 °F 26.4 °F 33.1 °F 97% 30.04 in 10.0 mi WNW 9.2 mph - N/A   Overcast
12:55 AM 33.8 °F 27.0 °F 33.3 °F 98% 30.04 in 10.0 mi West 8.1 mph - N/A   Overcast
1:15 AM 33.8 °F 30.8 °F 33.3 °F 98% 30.04 in 10.0 mi West 3.5 mph - N/A   Overcast
1:35 AM 33.8 °F 26.4 °F 33.4 °F 99% 30.05 in 10.0 mi WNW 9.2 mph - N/A   Overcast
1:55 AM 33.8 °F 26.4 °F 33.3 °F 98% 30.06 in 10.0 mi WNW 9.2 mph - N/A   Overcast
2:10 AM 33.8 °F 28.6 °F 33.3 °F 98% 30.06 in 10.0 mi West 5.8 mph - N/A   Overcast
2:35 AM 33.8 °F 27.0 °F 33.3 °F 98% 30.07 in 10.0 mi West 8.1 mph - N/A   Overcast
2:55 AM 33.8 °F 27.7 °F 32.9 °F 96% 30.07 in 10.0 mi West 6.9 mph - N/A   Overcast
3:15 AM 34.0 °F 28.0 °F 33.3 °F 97% 30.09 in 10.0 mi West 6.9 mph - N/A   Overcast
3:35 AM 34.2 °F 29.0 °F 33.8 °F 99% 30.09 in 10.0 mi West 5.8 mph - N/A   Overcast
3:55 AM 34.2 °F 28.2 °F 33.6 °F 98% 30.10 in 10.0 mi West 6.9 mph - N/A   Overcast
4:15 AM 34.2 °F 29.0 °F 33.8 °F 99% 30.11 in 10.0 mi WSW 5.8 mph - N/A   Overcast
4:35 AM 34.3 °F 29.2 °F 33.8 °F 98% 30.11 in 10.0 mi WSW 5.8 mph - N/A   Overcast
4:55 AM 33.8 °F 28.6 °F 33.4 °F 99% 30.13 in 10.0 mi WSW 5.8 mph - N/A   Mostly Cloudy
5:15 AM 34.0 °F 28.0 °F 33.8 °F 99% 30.15 in 10.0 mi West 6.9 mph - N/A   Mostly Cloudy
5:35 AM 34.9 °F 27.7 °F 34.0 °F 97% 30.16 in 10.0 mi WNW 9.2 mph - N/A   Overcast
5:55 AM 34.9 °F 28.3 °F 33.8 °F 96% 30.17 in 10.0 mi WNW 8.1 mph - N/A   Overcast
6:15 AM 35.1 °F 30.1 °F 33.8 °F 95% 30.18 in 10.0 mi WNW 5.8 mph - N/A   Overcast
6:35 AM 35.2 °F 31.2 °F 33.8 °F 94% 30.19 in 10.0 mi WNW 4.6 mph - N/A   Overcast
6:55 AM 35.2 °F 31.2 °F 34.0 °F 95% 30.20 in 10.0 mi WNW 4.6 mph - N/A   Overcast
7:15 AM 35.6 °F 30.7 °F 33.6 °F 92% 30.22 in 10.0 mi WNW 5.8 mph - N/A   Overcast
7:35 AM 35.6 °F 29.9 °F 33.3 °F 91% 30.22 in 10.0 mi West 6.9 mph - N/A   Overcast
7:55 AM 36.5 °F 29.2 °F 32.9 °F 87% 30.23 in 10.0 mi NW 10.4 mph - N/A   Overcast
8:15 AM 36.0 °F 28.0 °F 32.2 °F 86% 30.25 in 10.0 mi WNW 11.5 mph - N/A   Overcast
8:35 AM 36.1 °F 28.2 °F 32.2 °F 86% 30.27 in 10.0 mi NW 11.5 mph - N/A   Overcast
8:55 AM 36.5 °F 27.8 °F 32.5 °F 86% 30.28 in 10.0 mi NW 13.8 mph - N/A   Overcast
9:15 AM 36.7 °F 27.6 °F 32.4 °F 84% 30.29 in 10.0 mi NW 15.0 mph - N/A   Overcast
9:35 AM 36.9 °F 27.1 °F 32.5 °F 84% 30.29 in 10.0 mi NNW 17.3 mph 24.2 mph N/A   Overcast
9:55 AM 36.9 °F 27.1 °F 32.2 °F 83% 30.30 in 10.0 mi NNW 17.3 mph 28.8 mph N/A   Overcast
10:15 AM 37.8 °F 28.0 °F 32.5 °F 81% 30.31 in 10.0 mi NNW 18.4 mph 24.2 mph N/A   Overcast
10:35 AM 37.8 °F 27.4 °F 31.8 °F 79% 30.32 in 10.0 mi NNW 20.7 mph 26.5 mph N/A   Overcast
10:55 AM 36.9 °F 26.8 °F 31.1 °F 80% 30.32 in 10.0 mi NNW 18.4 mph 23.0 mph N/A   Overcast
11:15 AM 36.3 °F 26.8 °F 31.6 °F 83% 30.34 in 10.0 mi NNW 16.1 mph 20.7 mph N/A   Overcast
11:35 AM 35.8 °F 27.3 °F 31.3 °F 84% 30.33 in 10.0 mi North 12.7 mph 20.7 mph N/A   Overcast
11:55 AM 34.3 °F 22.6 °F 29.3 °F 82% 30.33 in 10.0 mi NNW 21.9 mph - N/A   Overcast
12:15 PM 34.0 °F 23.0 °F 29.1 °F 82% 30.33 in 10.0 mi NNW 18.4 mph 25.3 mph N/A   Overcast
12:35 PM 34.0 °F 23.8 °F 28.4 °F 80% 30.33 in 10.0 mi NNW 16.1 mph 21.9 mph N/A   Overcast
12:55 PM 33.8 °F 23.5 °F 28.0 °F 79% 30.34 in 10.0 mi North 16.1 mph - N/A   Overcast
1:15 PM 32.0 °F 19.5 °F 27.3 °F 83% 30.33 in 10.0 mi North 21.9 mph 27.6 mph N/A   Overcast
1:35 PM 32.0 °F 20.8 °F 26.4 °F 80% 30.34 in 10.0 mi North 17.3 mph 23.0 mph N/A   Overcast
1:55 PM 31.8 °F 20.6 °F 25.9 °F 79% 30.36 in 10.0 mi North 17.3 mph 25.3 mph N/A   Overcast
2:15 PM 31.6 °F 22.6 °F 25.7 °F 79% 30.37 in 10.0 mi North 11.5 mph - N/A   Overcast
2:35 PM 30.9 °F 19.4 °F 25.2 °F 79% 30.37 in 10.0 mi North 17.3 mph - N/A   Overcast
2:55 PM 31.1 °F 20.5 °F 24.1 °F 75% 30.38 in 10.0 mi North 15.0 mph 21.9 mph N/A   Overcast
3:15 PM 31.1 °F 20.1 °F 25.2 °F 79% 30.39 in 10.0 mi North 16.1 mph - N/A   Overcast
3:35 PM 31.1 °F 20.5 °F 25.3 °F 79% 30.40 in 10.0 mi North 15.0 mph - N/A   Overcast
3:55 PM 30.9 °F 20.7 °F 25.5 °F 80% 30.41 in 10.0 mi North 13.8 mph 18.4 mph N/A   Overcast
4:15 PM 30.7 °F 19.6 °F 25.9 °F 82% 30.41 in 10.0 mi North 16.1 mph 20.7 mph N/A   Overcast
4:35 PM 30.7 °F 20.4 °F 25.5 °F 81% 30.41 in 10.0 mi North 13.8 mph 18.4 mph N/A   Overcast
4:55 PM 30.6 °F 20.7 °F 26.2 °F 84% 30.43 in 10.0 mi North 12.7 mph 17.3 mph N/A   Overcast
5:15 PM 30.4 °F 20.0 °F 24.8 °F 80% 30.43 in 10.0 mi North 13.8 mph 18.4 mph N/A   Overcast
5:35 PM 30.2 °F 19.3 °F 25.3 °F 82% 30.42 in 10.0 mi North 15.0 mph - N/A   Overcast
5:55 PM 30.2 °F 19.8 °F 25.2 °F 82% 30.43 in 10.0 mi North 13.8 mph 19.6 mph N/A   Overcast
6:15 PM 30.2 °F 20.2 °F 25.2 °F 82% 30.43 in 10.0 mi North 12.7 mph - N/A   Overcast
6:35 PM 30.2 °F 19.3 °F 25.0 °F 81% 30.44 in 10.0 mi North 15.0 mph - N/A   Overcast
6:55 PM 30.2 °F 18.9 °F 24.4 °F 79% 30.45 in 10.0 mi North 16.1 mph 19.6 mph N/A   Overcast
7:15 PM 30.2 °F 20.2 °F 24.3 °F 79% 30.46 in 10.0 mi North 12.7 mph 18.4 mph N/A   Overcast
7:35 PM 30.2 °F 19.8 °F 24.4 °F 79% 30.47 in 10.0 mi North 13.8 mph 20.7 mph N/A   Overcast
7:55 PM 30.0 °F 18.3 °F 24.3 °F 79% 30.46 in 10.0 mi North 17.3 mph - N/A   Overcast
8:15 PM 30.0 °F 17.9 °F 23.7 °F 77% 30.47 in 10.0 mi North 18.4 mph - N/A   Overcast
8:35 PM 29.8 °F 18.0 °F 23.9 °F 79% 30.46 in 10.0 mi North 17.3 mph 25.3 mph N/A   Overcast
8:55 PM 29.8 °F 18.9 °F 24.6 °F 81% 30.46 in 10.0 mi North 15.0 mph - N/A   Overcast
9:15 PM 29.7 °F 17.8 °F 24.3 °F 80% 30.46 in 10.0 mi NNE 17.3 mph - N/A   Overcast
9:35 PM 29.7 °F 17.8 °F 24.6 °F 81% 30.46 in 10.0 mi North 17.3 mph 23.0 mph N/A   Overcast
9:55 PM 29.8 °F 17.3 °F 23.9 °F 79% 30.47 in 10.0 mi NNE 19.6 mph 25.3 mph N/A   Overcast
10:15 PM 29.8 °F 17.0 °F 23.9 °F 79% 30.47 in 10.0 mi NNE 20.7 mph 26.5 mph N/A   Overcast
10:35 PM 29.8 °F 18.4 °F 23.9 °F 79% 30.48 in 10.0 mi NNE 16.1 mph - N/A   Overcast
10:55 PM 29.7 °F 18.6 °F 23.9 °F 79% 30.47 in 10.0 mi NNE 15.0 mph 20.7 mph N/A   Overcast
11:15 PM 29.7 °F 19.1 °F 23.5 °F 78% 30.47 in 10.0 mi NNE 13.8 mph - N/A   Overcast
11:35 PM 29.7 °F 19.6 °F 23.7 °F 79% 30.46 in 10.0 mi NNE 12.7 mph - N/A   Overcast
11:55 PM 29.8 °F 19.8 °F 24.3 °F 80% 30.46 in 10.0 mi NNE 12.7 mph - N/A   Overcast